Overview Statistics Trail Chart Weather Telemetry Raw packets
 

This is the latest recevied weather packets stored in our database for station/object N0HOT. If no packets are shown the sender has not sent any weather packets the latest 10 day(s).

<< 104 105 106 107 108 109 110 >>
Time Temp. Humidity Pressure Rain* Wind** Luminosity Snow
1787867433 28.33° C 39% 1016.7 hPa 0 mm - 289 W/m² -
1787867129 28.89° C 44% 1017 hPa 0 mm - 357 W/m² -
1787866823 28.89° C 44% 1016.7 hPa 0 mm - 391 W/m² -
1787866518 28.89° C 44% 1016.7 hPa 0 mm - 415 W/m² -
1787866216 28.89° C 42% 1017 hPa 0 mm - 169 W/m² -
1787865907 28.89° C 39% 1016.7 hPa 0 mm - 430 W/m² -
1787865602 28.33° C 41% 1017 hPa 0 mm - 211 W/m² -
1787865296 28.33° C 38% 1016.7 hPa 0 mm - 459 W/m² -
1787864992 28.33° C 42% 1017 hPa 0 mm - 457 W/m² -
1787864688 28.33° C 41% 1016.7 hPa 0 mm - 479 W/m² -
1787864386 28.33° C 42% 1017 hPa 0 mm - 485 W/m² -
1787864086 28.33° C 41% 1017 hPa 0 mm - 547 W/m² -
1787863785 28.33° C 40% 1017 hPa 0 mm - 150 W/m² -
1787863484 28.33° C 39% 1017 hPa 0 mm - 481 W/m² -
1787863180 28.33° C 42% 1017 hPa 0 mm - 547 W/m² -
1787862876 27.78° C 41% 1017 hPa 0 mm - 554 W/m² -
1787862575 27.78° C 42% 1017 hPa 0 mm - 555 W/m² -
1787862271 27.78° C 46% 1017 hPa 0 mm - 558 W/m² -
1787861966 27.78° C 42% 1017.3 hPa 0 mm - 554 W/m² -
1787861665 27.78° C 41% 1017 hPa 0 mm - 551 W/m² -
1787861363 27.78° C 43% 1017.3 hPa 0 mm - 547 W/m² -
1787861059 27.78° C 44% 1017 hPa 0 mm - 575 W/m² -
1787860757 27.78° C 42% 1017.3 hPa 0 mm - 602 W/m² -
1787860453 27.78° C 47% 1017.3 hPa 0 mm - 605 W/m² -
1787860152 27.78° C 44% 1017.3 hPa 0 mm - 624 W/m² -

* Rain latest hour (hover to see other rain measurements)
** Current wind speed in m/s (hover to see current wind gust speed)